Location: L�gaud
(45.7115°N, 1.7775°E)
Time: 07:12:14
(UTC+00:00)

DMSP B5D1-3 - Pass Details

Date: 03 March 2021
Orbit: 767 x 780 km, 98.5° (Epoch: 10 April)

Event Time Altitude Azimuth Distance (km) Brightness Sun altitude
Rises 18:47:20 0° 14° (NNE) 3,272 7.7 -12.1°
Reaches altitude 10° 18:49:40 10° 15° (NNE) 2,341 6.9 -12.5°
Maximum altitude 18:54:51 84° 104° (ESE) 790 4.5 -13.4°
Drops below altitude 10° 19:00:00 10° 193° (SSW) 2,327 7.1 -14.3°
Sets 19:02:18 0° 194° (SSW) 3,250 7.9 -14.7°
